GFSSGP_925_temp_105.txt.gz
Temp
20 21 21 21 24 22 23 24 21 24 24 25 24 26 27 28 28 29 24 23 24 25 24 24 24 24 23 23 23 23 23 23 23 23 23 23 23 23 23 22 21 20 20 20 20 20 20 21 21
20 20 20 20 23 24 26 21 24 24 24 24 25 26 26 28 27 28 25 21 24 25 24 24 24 24 23 23 23 23 23 23 23 23 23 23 23 23 22 22 21 20 20 20 20 20 20 20 20
20 20 23 23 20 25 25 22 22 23 24 24 26 26 26 28 29 27 26 23 23 23 24 24 24 24 23 23 23 23 23 23 23 23 23 23 23 22 22 21 21 21 20 20 20 20 20 20 20
19 20 19 22 23 21 22 22 21 23 25 24 25 26 27 26 25 23 25 24 23 23 24 24 24 24 24 23 23 23 23 23 22 22 22 22 22 22 22 21 21 20 20 20 20 20 20 20 20
17 19 20 21 21 20 20 20 22 23 23 24 25 26 25 26 23 23 21 25 21 22 24 24 24 24 24 23 23 22 22 22 22 22 22 22 21 21 21 20 20 20 20 20 20 20 20 20 20
19 18 20 21 22 20 21 21 23 23 24 24 25 25 25 24 23 21 21 19 21 22 24 24 24 23 23 22 22 22 22 22 22 22 22 21 21 21 21 21 20 20 20 20 20 20 20 20 20
19 19 20 19 20 21 22 22 22 23 24 24 24 24 25 26 21 19 20 20 19 20 22 22 22 22 22 22 22 22 22 22 22 22 21 21 21 21 21 20 20 20 20 20 20 20 20 20 19
18 19 17 18 21 22 22 23 23 23 24 23 24 25 25 25 22 19 20 20 19 20 20 21 21 21 20 21 21 21 21 21 21 21 21 21 21 20 20 20 20 19 20 20 20 20 20 19 19
16 19 18 20 19 22 21 22 22 22 23 23 24 24 25 24 22 20 20 20 19 18 18 18 18 18 20 20 20 20 21 21 21 21 21 20 19 19 19 19 19 19 19 19 20 19 19 19 19
18 17 18 18 20 21 21 20 21 22 22 23 23 23 22 23 23 23 22 22 20 19 19 18 19 18 19 19 20 19 20 20 19 19 19 19 19 19 18 19 19 19 19 19 19 19 19 19 17
17 18 17 18 19 20 20 20 20 21 21 22 22 24 23 22 22 23 23 22 22 20 19 19 18 18 18 18 19 19 19 19 19 19 18 18 19 19 18 18 18 18 19 18 19 19 18 17 17
17 17 18 19 20 20 20 21 20 20 21 23 23 22 21 22 22 23 23 23 21 20 21 20 19 18 18 18 18 17 18 18 18 18 19 18 19 19 18 18 18 17 18 18 19 18 18 17 17
16 17 18 18 19 19 19 19 20 20 21 22 21 20 21 22 22 22 21 22 22 21 20 22 22 20 17 18 17 17 17 17 18 18 19 18 18 18 18 18 18 18 18 18 18 18 18 17 16
17 17 18 18 18 18 19 20 18 20 21 20 20 21 21 21 22 21 22 22 22 22 21 22 22 23 20 19 17 17 17 17 17 17 18 18 17 18 18 18 18 17 18 18 18 18 17 17 16
17 17 18 18 19 19 19 19 18 21 20 20 20 21 21 20 21 21 21 21 22 23 23 20 23 25 19 21 20 18 17 17 17 17 17 16 16 17 18 18 18 18 18 18 17 17 17 16 16
17 16 17 18 18 19 19 19 20 19 19 20 21 21 20 21 20 21 20 19 20 19 21 22 19 20 18 18 20 20 18 17 17 16 17 17 17 17 18 17 17 17 17 17 17 16 16 15 15
15 17 16 17 18 18 18 18 20 20 20 19 20 20 21 20 20 20 18 17 17 17 17 19 21 19 18 18 17 17 17 17 17 16 16 17 17 17 17 18 17 17 17 16 17 16 16 15 15
15 15 15 16 18 18 17 17 18 18 18 19 20 20 20 20 19 16 15 14 13 14 14 17 18 19 19 18 17 16 16 16 16 16 16 16 17 17 17 17 16 16 16 16 16 16 16 15 15
16 15 16 16 17 15 17 17 18 19 18 18 19 19 18 17 16 14 13 12 12 12 12 12 13 16 17 18 17 16 16 16 16 16 16 16 16 17 17 17 16 16 16 15 15 15 15 14 15
14 15 15 16 16 15 17 17 18 18 18 18 19 17 15 15 15 14 13 12 11 11 11 11 12 12 14 18 18 18 17 17 16 16 16 16 16 16 16 16 16 16 16 15 15 15 14 14 14
15 14 15 15 16 16 16 18 18 19 18 16 15 14 14 13 13 13 12 11 10 10 9 10 10 10 11 13 18 18 17 17 16 16 16 16 16 17 16 16 16 16 15 15 15 15 15 14 14
14 15 16 16 15 16 17 17 18 19 19 16 14 13 12 12 11 11 11 10 9 9 8 8 8 9 10 12 16 18 18 18 18 17 16 16 16 16 16 16 16 15 16 15 15 15 15 14 14
15 15 15 15 15 15 16 16 18 17 18 16 14 13 12 11 10 9 9 8 8 8 7 7 7 8 9 10 13 17 18 18 18 18 17 16 16 16 15 15 15 15 16 15 15 15 14 14 14
16 15 15 14 15 15 17 17 19 18 17 15 13 12 10 9 9 8 8 7 7 7 6 5 5 6 7 9 11 15 18 18 18 17 17 16 15 15 15 15 16 16 17 15 15 16 15 14 14
15 15 15 15 14 15 15 15 18 16 14 14 12 11 9 8 8 8 7 7 6 5 4 4 4 5 6 8 10 14 17 18 18 17 17 16 15 16 15 16 15 16 16 15 15 16 14 14 14
14 15 15 14 14 14 14 15 17 13 13 12 11 10 9 8 7 7 6 5 4 3 3 3 3 4 5 7 9 14 17 16 17 17 17 16 15 15 15 15 15 16 15 14 15 14 14 14 14
14 13 13 13 13 13 15 15 14 14 14 12 11 9 7 6 6 5 5 4 3 2 2 2 2 3 4 6 8 15 17 16 16 16 16 16 15 15 15 15 15 15 15 15 14 14 14 13 14
13 13 12 11 12 13 15 15 16 13 13 11 9 7 6 6 6 5 4 3 2 1 1 1 2 2 4 5 7 14 17 16 15 15 15 15 15 15 14 14 14 14 15 14 15 14 14 14 14
11 11 11 12 11 12 13 15 13 12 9 9 7 6 4 5 5 4 3 2 1 1 0 1 1 2 3 4 6 12 15 15 14 14 14 14 14 14 14 14 14 14 14 14 14 14 14 13 13
10 10 10 10 10 10 11 12 11 10 8 7 6 5 5 4 4 3 3 1 1 0 0 0 0 1 2 3 5 12 14 14 14 14 14 14 13 13 13 13 14 14 14 14 14 14 13 13 12

GFSSGP_925_temp_108.txt.gz
Temp
20 21 23 26 28 29 31 31 29 30 30 29 30 30 30 31 31 32 32 28 25 26 23 24 24 24 24 24 24 24 24 23 23 23 23 23 22 22 22 21 21 21 21 20 21 21 21 21 21
21 22 25 28 28 31 33 31 30 31 29 29 30 30 31 31 31 32 32 26 25 25 24 22 24 24 24 24 24 24 23 23 23 23 23 23 22 22 22 21 21 20 20 21 21 21 20 21 21
21 22 28 29 30 30 32 29 29 28 29 29 30 30 30 30 30 30 28 25 25 25 24 23 24 24 24 24 24 24 23 23 23 23 23 23 22 22 22 21 21 20 20 21 21 21 20 21 21
23 26 27 27 30 31 29 29 28 29 30 29 29 30 30 29 28 27 26 25 24 25 25 22 24 24 24 24 24 23 23 23 23 23 23 22 22 22 22 21 21 21 21 21 20 20 20 20 21
24 26 27 28 30 31 28 28 28 28 28 28 29 30 29 29 27 26 24 24 25 25 24 21 24 24 24 24 23 23 23 23 23 23 23 22 22 22 22 21 21 21 20 20 20 20 20 20 20
26 26 26 28 30 30 28 27 28 28 29 29 28 29 30 29 27 25 24 23 24 24 23 21 21 23 23 23 23 23 22 22 23 23 23 22 22 22 21 21 21 21 20 20 20 20 20 20 20
25 26 27 28 29 29 28 27 27 28 28 28 28 28 30 30 26 25 23 22 22 22 22 22 20 21 22 22 22 22 22 22 22 22 22 22 21 21 21 21 21 20 20 20 20 20 20 20 20
25 25 26 26 27 28 29 26 27 27 28 27 28 28 28 28 26 25 24 22 21 21 21 21 21 19 20 20 21 22 21 22 22 22 22 21 21 21 21 21 20 20 20 20 20 20 20 19 19
24 24 26 26 26 27 26 26 27 26 26 27 27 27 27 27 26 27 27 24 22 20 20 20 19 19 19 20 20 21 21 21 21 21 21 21 20 20 20 20 20 20 20 20 20 19 19 19 19
23 25 26 27 26 26 26 26 26 25 27 26 27 28 27 27 27 27 28 28 25 23 20 19 19 19 18 19 20 19 20 19 19 20 20 20 21 21 21 21 19 20 20 20 20 19 19 19 20
23 23 26 24 24 25 25 25 25 24 24 26 26 26 27 27 27 27 27 28 27 25 23 20 18 19 19 18 20 20 19 20 21 20 21 21 21 21 20 21 19 19 19 19 19 18 18 20 21
21 23 23 24 24 24 23 24 24 24 25 25 26 26 26 26 26 27 27 27 27 25 24 22 20 19 18 18 20 21 21 19 19 19 20 21 21 21 21 22 21 20 20 20 20 20 20 20 20
20 22 23 23 23 23 23 23 23 24 25 25 25 25 25 26 27 27 27 27 26 26 25 23 21 20 19 17 21 21 21 20 19 19 20 20 19 20 21 22 22 21 20 20 20 20 20 19 19
22 21 22 22 22 23 22 23 24 23 24 25 24 24 25 25 26 26 26 27 26 26 25 24 22 21 20 20 20 21 21 21 20 20 21 19 20 19 18 21 20 21 21 20 20 20 20 20 19
21 20 22 22 22 22 23 22 23 24 25 24 24 24 25 25 25 25 25 24 24 24 24 23 23 22 20 20 20 21 22 21 21 21 20 20 20 20 18 18 18 19 21 20 19 19 19 19 18
20 21 21 23 22 22 22 22 25 24 24 24 25 25 25 25 25 24 23 23 22 22 22 21 21 22 22 21 21 21 21 21 21 21 21 20 20 20 18 18 17 17 19 19 19 18 18 18 18
21 21 22 22 22 23 22 23 23 24 24 24 24 25 25 25 25 22 21 20 20 20 19 19 19 19 21 22 21 21 21 21 21 21 20 19 19 19 17 17 17 17 17 18 18 17 17 17 17
23 22 22 21 23 21 22 22 23 24 24 24 24 24 24 24 23 20 19 18 17 17 17 17 18 17 18 20 21 21 21 20 21 21 21 19 18 17 17 17 17 17 17 17 17 16 16 17 16
21 20 20 22 22 20 20 22 23 24 24 24 24 24 23 22 21 19 18 17 16 16 16 16 16 16 17 19 21 21 19 19 21 21 20 19 18 17 17 17 17 16 16 16 16 16 16 16 16
19 19 20 21 21 20 21 22 23 24 24 24 24 23 21 20 20 19 17 16 15 15 15 14 15 15 15 17 19 22 22 20 20 20 19 18 17 16 16 17 16 16 16 16 16 16 15 15 15
18 19 19 19 20 21 21 21 24 23 23 22 22 20 19 18 18 18 17 16 15 14 13 13 13 13 13 14 15 18 21 21 21 19 18 17 16 16 16 16 16 16 16 16 16 15 15 15 15
18 20 19 19 19 20 20 21 23 23 22 21 20 19 18 17 16 16 15 14 13 13 12 12 12 11 12 12 14 16 19 22 21 21 19 18 16 17 16 16 16 16 16 16 16 15 16 16 15
19 20 19 19 19 20 20 20 23 22 21 21 19 17 16 15 15 14 14 13 12 12 11 10 10 10 10 10 11 12 16 20 22 21 20 18 16 16 16 16 16 16 16 16 16 15 16 17 17
19 18 19 19 19 18 20 21 23 22 22 20 17 16 15 14 14 14 13 12 12 10 9 9 8 8 8 8 8 10 11 15 20 21 20 18 16 16 16 16 16 16 16 15 15 16 16 16 17
18 18 17 17 17 18 20 20 22 20 19 18 15 15 15 14 13 13 12 11 10 9 8 6 5 5 6 5 6 8 9 12 16 20 21 19 17 16 16 16 16 16 16 16 16 16 16 16 16
18 18 18 17 18 20 18 18 20 17 15 14 13 13 12 12 13 12 11 10 9 7 6 4 3 3 4 4 5 6 7 9 15 18 19 20 19 16 16 16 16 16 16 16 16 16 16 16 15
17 16 17 16 17 16 19 20 17 15 14 14 13 13 11 11 12 11 10 8 6 5 4 2 1 1 2 2 4 5 6 9 15 19 18 18 19 17 16 16 15 15 15 15 15 16 15 15 15
15 16 14 15 14 16 19 19 20 15 14 13 11 11 11 11 11 10 10 7 5 4 3 1 0 0 1 2 3 5 6 9 17 18 18 17 18 17 16 15 15 15 15 15 15 15 15 14 15
15 15 14 15 16 15 16 19 16 12 11 11 12 11 10 10 10 9 9 7 5 4 2 1 -0 -0 0 2 3 4 8 15 18 17 17 17 17 16 16 15 15 15 15 15 15 14 15 15 15
14 14 14 13 14 15 15 16 14 13 12 11 11 10 10 9 9 8 7 5 4 3 1 -1 -1 -1 -0 1 3 4 7 11 15 15 15 15 15 15 15 15 15 14 14 14 14 14 14 14 14

GFSSGP_925_temp_111.txt.gz
Temp
22 23 26 29 30 32 33 35 35 34 33 33 33 33 33 34 34 33 34 30 29 30 25 25 24 24 25 25 25 25 25 24 24 24 24 23 23 22 22 21 21 21 21 21 20 20 20 21 21
24 26 27 31 30 32 35 36 34 34 33 32 32 33 33 33 34 33 33 30 28 29 26 23 24 24 25 24 25 25 24 24 24 24 24 23 23 22 22 21 21 21 21 21 21 21 21 21 20
23 26 30 31 32 32 34 34 34 32 32 32 32 33 33 32 32 31 31 29 27 29 27 24 23 24 24 24 24 24 24 24 23 23 23 23 22 22 22 21 21 21 21 21 21 20 20 21 20
26 28 30 30 31 34 34 34 32 32 32 32 33 32 33 31 31 30 29 28 27 28 28 25 23 23 24 24 24 23 23 23 23 23 23 23 22 22 22 21 21 21 20 21 20 20 20 20 20
26 30 30 31 32 34 35 33 32 31 32 31 32 32 32 32 30 29 28 27 28 28 27 24 23 23 23 23 23 23 23 23 23 23 23 23 22 22 22 21 21 21 20 20 20 20 20 20 20
28 30 29 31 33 35 35 33 31 31 32 32 31 31 32 31 30 28 27 26 27 27 26 23 23 22 23 23 23 23 23 23 23 22 22 22 22 22 22 21 21 21 21 20 20 20 20 20 20
27 30 29 31 32 33 34 33 30 31 31 32 32 29 32 32 29 28 28 25 25 26 25 24 20 21 22 23 23 23 23 23 23 22 22 22 22 22 21 21 21 21 21 21 21 20 20 20 20
27 28 28 30 31 31 33 31 30 30 31 31 31 30 31 31 29 29 29 26 24 24 24 24 22 20 20 21 22 22 22 23 22 22 22 21 21 21 21 21 21 21 20 20 20 20 20 20 20
27 26 27 29 31 31 32 29 31 30 29 30 30 30 30 29 29 29 29 29 26 24 24 24 23 21 21 21 20 21 21 22 22 22 21 21 20 20 20 20 20 21 20 20 20 20 20 20 19
25 26 28 31 30 30 30 30 30 29 29 29 29 30 29 29 29 29 29 30 29 26 24 23 21 20 21 22 22 20 20 20 20 20 20 20 21 22 22 21 20 20 20 20 20 19 19 19 20
26 25 28 29 29 28 27 28 29 28 27 28 28 29 29 29 29 29 29 30 30 29 25 23 20 19 20 21 23 22 22 22 21 21 21 21 22 23 22 23 21 20 19 19 19 19 18 20 21
25 27 27 27 28 27 27 28 27 28 28 29 28 28 28 28 28 29 29 29 29 28 27 24 23 21 20 22 22 23 23 21 23 22 22 22 22 23 23 23 22 21 21 20 21 21 20 21 21
26 26 26 27 27 26 26 26 26 27 28 28 28 27 27 27 28 28 28 29 29 28 27 25 24 23 22 22 23 23 23 23 21 21 23 22 23 23 24 24 24 23 21 21 22 21 21 21 20
26 26 25 26 26 26 25 26 26 27 27 26 26 26 26 26 27 27 28 28 28 28 27 26 25 23 23 22 22 24 24 24 23 21 21 22 23 23 23 23 24 24 23 21 22 21 21 20 20
24 23 24 25 26 26 26 25 25 27 28 27 27 27 27 26 26 27 27 27 26 26 26 25 24 24 23 22 22 22 24 23 23 22 21 22 21 22 20 21 23 24 24 22 21 21 21 21 20
22 23 23 26 28 26 25 24 28 28 27 27 27 27 27 27 27 27 26 25 25 25 24 23 22 23 23 23 22 22 23 24 23 24 23 22 22 22 22 19 21 22 23 23 21 21 21 20 20
23 23 25 27 27 25 25 25 27 27 26 26 27 27 27 27 28 26 24 23 22 22 21 21 21 21 21 22 22 23 23 23 23 23 23 23 22 22 22 20 19 19 20 22 21 21 21 20 21
24 25 27 26 27 26 24 25 26 27 26 26 26 27 27 27 27 24 22 21 20 20 19 19 19 19 19 19 20 23 24 23 23 23 24 23 22 22 22 22 19 18 18 19 21 20 19 20 21
23 24 24 26 27 25 24 25 25 26 27 26 26 26 26 27 26 23 21 20 19 19 18 18 17 18 18 19 21 22 23 24 24 23 23 23 22 21 21 21 19 18 17 18 18 18 17 18 19
23 22 23 24 25 24 24 24 25 26 27 27 27 27 26 25 24 22 20 19 18 18 17 17 17 17 17 17 18 19 21 23 24 23 23 23 22 21 20 20 18 18 17 17 17 17 17 17 18
22 22 22 22 24 24 23 23 25 26 27 27 27 26 24 23 21 21 20 18 17 17 16 16 16 15 15 15 16 18 19 20 21 23 23 23 22 21 19 18 18 18 17 17 17 17 17 17 16
21 23 22 22 22 21 25 23 26 26 25 25 24 23 22 20 20 19 19 18 17 16 15 14 14 14 14 14 15 15 16 18 22 24 24 22 22 21 19 18 17 18 17 17 17 17 17 18 16
20 22 21 21 21 21 22 23 24 26 25 24 23 21 20 19 18 18 18 17 16 15 14 13 12 12 12 11 12 12 13 15 17 20 22 23 22 20 18 18 18 18 17 17 17 16 16 17 17
22 21 20 20 20 19 22 23 24 26 25 24 20 19 18 18 18 18 16 16 15 14 13 11 10 10 9 9 9 9 9 10 13 16 19 23 23 21 18 17 17 17 17 17 17 17 16 17 18
19 18 17 17 18 18 23 23 24 23 22 23 20 19 18 17 17 17 16 15 14 12 11 10 9 8 7 7 7 7 7 8 10 12 15 19 22 20 18 17 17 17 17 17 17 17 16 17 18
18 18 16 14 17 18 22 20 21 20 19 18 18 17 17 16 16 16 15 14 13 11 10 8 7 6 5 5 5 4 4 5 7 10 13 17 20 20 18 16 16 16 17 17 17 17 16 17 17
18 17 19 17 17 18 20 21 19 17 17 16 16 16 16 16 16 15 14 13 11 10 8 6 5 4 3 3 3 2 3 4 6 7 10 14 18 19 18 16 16 16 16 17 17 17 17 16 17
17 17 15 17 15 16 19 20 20 16 14 15 15 15 15 15 15 14 13 12 10 8 7 5 3 2 2 1 1 1 2 4 5 6 8 12 18 19 18 17 16 16 16 16 16 17 17 17 16
16 15 16 16 16 15 16 18 17 14 15 15 15 14 14 14 14 13 12 10 9 7 5 4 2 1 0 -1 -0 1 3 4 6 9 10 14 18 18 18 16 16 16 16 16 16 16 16 16 16
16 16 16 15 15 17 17 17 17 16 16 15 14 14 13 13 12 12 11 9 7 5 4 2 1 -1 -2 -1 -1 1 2 3 5 8 14 17 17 18 18 16 16 16 15 15 15 16 16 15 16

GFSSGP_925_temp_114.txt.gz
Temp
23 23 24 28 28 30 30 34 37 35 34 34 34 33 33 34 33 31 31 30 30 27 27 27 26 25 25 25 25 25 25 24 24 24 24 24 24 23 23 22 22 21 21 21 21 21 21 21 21
21 25 28 29 28 30 32 36 35 34 33 33 33 33 33 33 34 33 32 30 29 27 26 25 25 25 24 25 25 25 25 24 24 24 24 23 23 23 23 22 21 21 21 21 20 20 20 20 20
21 25 28 29 30 30 32 35 34 33 33 33 33 34 33 32 32 32 30 29 28 29 25 23 24 24 24 24 25 25 25 24 24 23 23 23 23 23 22 22 21 21 21 21 20 20 20 20 20
25 28 28 28 30 32 34 35 34 33 33 33 33 32 34 32 32 30 30 29 28 29 27 25 24 23 23 24 24 24 24 24 24 23 23 23 23 23 22 22 21 21 21 20 21 20 20 20 20
27 28 28 29 30 33 35 36 34 32 32 33 33 32 33 32 31 29 29 28 28 28 27 25 25 23 23 23 24 24 24 24 23 23 23 23 23 22 22 21 21 21 21 20 20 20 20 20 20
27 29 27 29 31 34 35 35 33 32 33 33 32 32 32 32 30 29 29 27 27 27 25 25 24 24 22 22 23 23 23 23 23 23 23 23 23 22 22 22 21 21 21 20 20 20 20 20 20
25 27 27 29 30 31 33 34 32 32 32 32 33 31 32 32 30 29 29 27 26 27 25 24 23 23 22 22 22 23 23 23 23 22 22 22 22 22 22 22 21 21 21 20 20 20 20 20 20
27 26 26 27 28 30 33 32 31 31 31 32 32 30 30 30 30 29 30 28 25 25 26 23 23 22 22 22 22 22 22 22 22 22 22 22 22 21 22 21 21 21 21 21 20 20 20 20 20
27 24 25 27 29 30 32 31 31 32 30 30 31 31 31 30 30 30 30 30 26 25 25 24 22 21 21 21 21 21 22 22 22 22 22 21 21 21 21 21 21 21 21 20 20 20 20 19 19
26 25 26 29 30 30 30 30 30 30 30 29 30 31 30 30 30 29 29 29 28 25 24 24 23 22 21 21 21 21 21 21 21 21 21 21 20 20 20 21 20 20 20 20 20 19 19 19 19
26 25 27 28 29 29 29 28 29 28 28 29 29 29 30 29 29 28 28 29 29 29 25 24 23 22 22 22 21 21 20 20 20 20 20 21 21 21 22 21 21 21 20 20 20 19 19 19 19
26 27 27 27 28 28 27 28 28 28 28 29 29 29 29 28 28 28 28 28 29 29 26 23 23 22 21 22 22 21 21 21 21 21 21 21 21 22 22 23 22 21 20 20 20 20 20 20 20
26 27 28 28 28 27 28 27 27 27 28 29 29 28 27 27 27 27 28 28 29 28 27 24 22 21 21 20 22 23 23 22 22 21 21 21 22 22 22 23 22 21 21 21 21 21 21 21 21
25 26 26 27 27 27 27 27 27 27 28 28 28 27 27 26 26 27 27 28 28 27 27 25 24 22 22 21 22 23 24 23 23 23 22 22 22 23 23 23 23 22 21 21 21 21 21 21 21
25 24 25 26 26 26 27 25 26 27 28 28 28 28 27 27 26 26 27 28 26 26 25 24 24 24 21 22 22 22 22 23 23 22 23 22 22 23 23 23 23 24 22 22 22 22 22 21 21
23 23 23 25 27 27 27 24 27 28 29 28 28 28 28 28 27 26 27 25 25 24 22 22 22 21 22 22 22 22 22 22 23 23 22 22 22 22 22 23 23 23 24 22 22 22 21 21 21
22 21 23 25 28 28 27 25 27 28 28 27 27 27 28 27 28 27 25 24 22 22 21 21 20 20 20 20 21 21 22 22 23 23 23 22 22 22 22 21 22 22 22 23 21 21 21 21 20
22 24 25 26 28 29 27 26 27 27 28 27 26 27 27 28 28 24 23 21 21 20 20 19 19 18 18 19 19 21 21 22 23 23 23 23 23 22 22 22 21 21 20 21 21 21 21 21 20
23 23 23 25 26 26 26 26 27 27 27 27 27 27 27 27 26 23 21 20 20 19 19 18 18 18 17 18 18 19 21 22 23 23 23 23 23 22 22 22 21 20 20 19 20 21 20 20 20
23 22 23 24 25 25 25 25 26 27 27 27 27 27 27 27 24 22 21 19 18 18 17 16 16 16 16 16 16 16 17 18 19 20 21 23 23 23 22 22 21 19 18 19 18 19 19 19 19
23 22 22 23 24 25 24 24 25 26 27 27 28 28 26 25 22 21 20 19 18 17 16 15 15 14 14 14 14 15 16 17 18 20 21 22 23 23 22 21 21 20 19 18 18 18 18 18 18
21 23 22 22 22 20 23 21 24 25 27 27 27 25 22 21 21 20 19 18 17 16 15 14 13 13 13 12 12 12 13 14 15 16 17 18 21 23 22 21 20 20 18 18 17 18 18 18 18
21 22 20 20 18 18 20 20 22 25 26 25 24 21 20 20 19 19 18 17 17 15 14 13 12 12 11 10 10 10 10 10 11 11 13 14 16 19 22 21 19 19 18 18 17 17 17 17 18
21 20 20 20 19 16 19 20 21 23 25 25 21 20 19 19 19 18 17 16 15 14 12 11 11 10 9 8 8 8 8 8 8 9 10 11 14 16 20 21 20 19 18 18 17 17 17 17 17
20 18 16 14 15 16 20 20 21 18 21 19 19 19 18 18 17 17 16 15 14 13 11 10 9 8 7 6 6 6 6 6 6 7 8 10 11 14 17 20 20 19 18 18 18 17 17 17 17
18 18 13 13 15 17 15 17 18 18 17 17 18 18 17 17 16 15 15 14 13 11 10 9 7 5 5 4 3 3 3 4 4 5 6 7 10 12 14 18 19 17 17 19 18 17 17 17 17
17 17 18 14 14 15 17 18 16 18 17 16 16 16 16 16 15 15 14 13 11 10 8 6 5 4 3 2 2 1 2 2 3 3 4 5 7 9 11 14 18 17 17 17 17 17 17 16 16
18 19 16 12 13 15 18 20 15 15 15 15 15 15 15 15 14 14 13 11 10 8 6 5 3 2 1 1 0 0 1 1 2 3 4 5 6 7 9 12 17 17 16 16 16 17 17 17 16
17 16 16 16 15 13 15 17 15 14 13 13 15 14 14 14 13 12 12 10 8 6 5 3 2 1 -1 -1 -1 -1 0 1 2 3 3 5 7 8 8 12 16 17 16 16 16 16 17 17 16
17 17 17 14 14 15 15 15 17 15 16 16 15 14 14 13 12 11 10 9 7 5 3 2 1 -1 -2 -2 -2 -1 -1 -0 1 2 3 4 6 11 10 12 16 17 17 17 16 16 17 17 17

GFSSGP_925_temp_117.txt.gz
Temp
23 23 22 22 21 20 22 25 28 27 28 29 31 30 30 30 30 25 29 29 28 28 26 25 26 26 25 25 25 25 25 25 25 25 25 25 24 24 24 23 23 22 22 21 21 21 21 21 21
24 24 23 20 21 21 22 27 28 28 29 31 31 31 31 30 30 28 28 29 28 27 26 25 25 26 25 25 25 25 25 25 24 24 24 24 24 24 24 23 22 22 21 21 21 21 21 20 20
23 22 20 20 20 21 23 29 28 29 31 31 31 32 32 28 29 29 29 29 28 26 26 26 25 25 25 24 24 24 25 24 24 24 24 24 24 24 23 23 22 22 21 21 21 21 20 20 20
23 22 20 21 22 24 26 29 29 29 30 30 31 30 30 30 30 29 28 28 28 26 26 26 25 24 24 24 24 24 24 24 24 24 24 24 23 23 23 23 22 21 21 21 21 21 20 20 20
23 20 20 21 22 25 28 29 31 31 31 31 29 30 29 29 29 29 28 28 27 26 25 25 24 24 24 24 23 24 24 24 24 23 23 23 23 23 23 23 22 21 21 20 20 20 20 20 20
20 20 20 20 23 26 28 28 31 31 31 31 30 30 29 28 29 29 28 27 26 26 25 25 24 24 24 23 23 23 24 24 23 23 23 23 23 23 22 22 22 21 21 20 20 20 20 20 20
21 19 20 21 24 25 28 29 28 29 28 28 29 28 27 26 29 29 27 26 26 25 25 25 24 24 24 23 23 23 23 23 23 23 23 23 23 22 22 22 22 21 21 20 20 20 20 20 20
21 20 22 21 23 24 27 29 29 29 29 30 29 28 27 27 29 29 28 26 27 25 24 24 24 23 23 22 22 22 22 22 23 22 22 22 22 22 22 21 21 21 21 20 20 20 20 20 20
22 19 18 21 23 25 27 26 28 27 28 29 29 28 28 29 30 29 29 25 25 25 24 23 23 23 22 22 22 21 22 22 22 22 21 21 21 21 21 21 21 21 21 20 20 20 20 19 20
20 17 20 23 24 25 26 24 26 26 25 27 27 28 29 30 28 26 26 26 25 24 24 24 23 23 22 21 21 21 21 21 21 21 21 21 21 21 21 21 21 21 21 20 20 20 20 19 19
21 20 22 23 25 25 23 24 25 25 24 25 25 27 26 27 26 26 27 27 27 26 24 24 23 22 22 21 21 21 21 21 21 21 21 21 21 21 21 21 21 21 20 20 19 19 19 19 19
20 23 23 24 24 25 25 24 24 24 24 25 24 25 27 26 25 26 26 27 27 27 25 24 23 22 22 22 21 21 21 21 21 21 21 20 21 20 21 21 21 21 21 20 20 20 20 19 20
21 22 23 23 23 23 24 23 23 24 24 24 24 25 24 25 25 26 27 27 27 26 25 25 24 23 23 22 21 21 21 22 22 21 21 21 20 21 21 21 21 22 21 21 20 20 20 20 20
22 22 22 23 23 23 24 24 23 24 23 23 24 23 23 23 24 25 26 26 25 24 23 22 22 22 21 21 22 21 21 21 21 21 21 21 21 21 21 22 21 22 22 21 21 20 20 20 21
21 19 21 21 22 22 24 23 23 24 23 25 24 23 23 23 24 23 26 25 22 21 21 21 20 20 21 20 21 20 19 21 21 21 21 21 21 21 21 22 22 22 22 22 21 21 20 20 21
19 19 18 21 22 23 22 22 23 23 23 23 23 23 23 22 22 25 25 21 21 20 20 20 19 19 19 19 18 18 20 20 22 21 22 22 21 21 22 22 22 23 22 22 21 21 21 21 21
17 15 18 20 22 23 22 23 25 24 24 23 25 25 23 23 21 22 21 20 20 19 19 19 19 18 18 18 19 19 20 20 21 21 22 22 22 21 22 22 22 23 22 22 21 21 21 21 21
17 17 18 19 21 22 22 22 23 23 23 23 22 23 23 22 20 19 20 19 19 18 17 17 17 17 17 17 17 18 19 20 20 21 21 21 21 22 22 22 22 22 22 21 21 21 21 21 21
19 19 19 20 22 21 21 22 22 23 22 22 20 20 21 19 19 18 18 18 17 17 16 16 15 15 15 15 15 15 15 17 18 19 19 20 21 22 22 22 22 22 22 22 20 20 21 20 20
19 19 19 20 22 22 21 21 21 23 22 22 22 20 20 19 18 17 17 17 16 16 15 14 14 13 13 13 13 13 13 14 15 16 17 18 19 19 21 22 22 22 21 21 21 20 19 19 20
20 19 19 20 20 19 19 19 20 22 23 23 23 24 22 19 18 17 16 15 15 14 13 13 12 12 11 11 11 11 13 14 13 14 15 16 17 17 18 21 22 21 21 19 22 21 20 19 19
18 20 21 20 17 15 17 15 18 20 21 22 23 19 18 17 16 15 14 13 12 12 12 12 11 10 9 9 8 8 8 8 9 9 10 13 15 16 16 17 19 21 21 20 19 18 19 20 18
19 19 18 19 18 16 17 14 17 19 20 21 18 17 16 16 14 14 13 12 12 12 11 10 9 8 7 7 6 6 6 6 7 7 7 10 13 14 14 15 16 18 20 20 19 19 20 19 17
19 18 17 16 16 14 16 15 16 17 20 16 16 16 15 15 14 13 13 12 11 10 9 9 7 6 5 5 4 4 4 4 5 5 6 6 7 10 11 12 14 16 18 20 19 19 18 17 17
16 15 13 12 13 14 18 17 17 15 15 15 15 15 14 14 13 12 11 10 9 8 7 6 5 4 3 3 3 3 3 3 3 4 4 5 5 6 8 10 11 14 16 19 19 18 18 18 17
16 15 11 13 13 13 16 15 12 12 12 11 14 15 14 13 12 11 9 8 7 6 5 4 3 3 2 1 1 1 1 1 2 2 3 4 4 5 6 7 8 10 15 16 18 18 18 16 17
16 14 16 13 13 12 13 14 11 10 11 10 10 10 10 10 10 10 9 7 6 5 4 3 2 1 0 -0 -1 -1 -0 -0 1 1 2 2 3 4 5 6 7 8 11 14 17 17 18 17 16
17 17 13 11 12 13 14 15 13 11 11 10 10 11 12 10 10 9 8 6 5 4 2 2 1 -0 -1 -2 -2 -1 -1 -1 -0 0 1 2 3 4 4 5 6 7 9 13 16 16 17 17 16
15 15 15 13 11 11 11 13 14 12 11 12 12 12 10 9 8 7 7 5 3 2 1 1 -0 -1 -2 -2 -2 -2 -1 -1 -1 -0 1 2 2 3 4 5 7 7 8 11 15 16 17 17 17
15 15 15 11 12 11 11 11 14 13 13 13 13 11 9 8 7 6 5 3 2 1 1 -0 -1 -1 -2 -2 -2 -2 -1 -1 -1 -1 -0 0 1 2 3 6 7 9 8 11 14 16 17 17 17

GFSSGP_925_temp_120.txt.gz
Temp
22 23 23 22 20 17 20 23 26 26 29 29 29 29 28 28 28 25 28 28 28 28 25 25 26 26 25 25 25 26 26 25 25 25 25 25 25 24 24 23 22 22 21 21 21 21 20 20 20
23 23 22 18 19 19 20 23 27 27 28 29 30 29 29 27 27 26 27 27 28 28 26 25 26 26 25 25 25 25 25 25 25 25 25 25 25 24 24 23 22 22 22 22 21 21 21 21 21
22 22 19 18 16 19 21 26 27 27 29 30 30 30 28 27 27 27 28 27 27 27 26 25 25 25 25 24 24 24 25 25 25 25 25 24 24 24 24 23 22 22 21 21 21 21 20 20 20
22 20 18 19 20 21 25 24 26 27 30 29 29 29 28 27 28 27 27 27 26 26 26 25 25 25 24 24 24 24 24 24 24 24 24 24 24 24 23 23 22 22 21 20 20 20 20 20 20
22 16 18 19 20 22 25 25 26 28 29 30 30 29 26 27 27 28 27 27 27 25 26 25 25 24 24 24 24 24 24 24 24 24 24 24 23 23 23 23 22 22 21 20 20 20 20 20 20
18 17 19 19 20 23 24 25 25 27 27 27 29 28 25 27 27 27 27 27 27 26 25 25 24 24 24 24 24 24 23 23 23 23 23 23 23 23 23 23 22 22 21 20 20 20 20 20 20
19 17 18 20 20 22 26 26 27 27 26 28 27 26 26 26 28 28 28 27 27 25 25 24 24 23 24 24 24 23 23 23 23 23 23 23 23 23 22 22 22 22 21 20 20 20 20 20 20
18 17 20 20 21 22 26 26 25 25 27 27 28 26 25 26 29 28 27 26 25 25 25 24 24 24 24 23 23 23 23 23 22 22 23 22 22 22 22 22 22 21 21 20 20 20 20 20 20
20 17 16 19 22 22 24 23 26 26 26 26 26 27 27 29 27 27 25 24 23 23 24 24 24 24 23 23 23 22 22 22 21 21 22 22 22 22 22 21 21 21 21 20 20 20 20 19 20
18 15 18 20 22 22 23 22 23 25 24 25 25 26 27 27 27 26 25 24 24 23 23 23 23 23 23 22 22 22 22 21 21 21 21 21 21 21 21 22 21 21 21 20 20 20 19 19 19
19 18 19 21 22 22 22 22 23 24 24 24 24 24 25 26 25 26 26 27 25 25 24 23 23 23 22 22 21 21 21 21 21 21 21 21 21 20 20 21 21 20 20 20 19 19 19 19 19
19 20 20 21 22 21 21 22 22 23 23 24 23 23 24 24 23 24 25 26 27 24 26 24 22 22 22 21 21 21 20 20 21 21 21 21 21 20 20 20 21 21 20 20 19 19 20 19 19
19 20 21 21 21 21 21 21 21 22 23 21 22 22 22 21 22 25 26 26 24 24 24 22 23 22 21 20 21 21 21 21 21 21 21 21 21 21 20 20 20 21 21 20 20 19 20 20 20
20 19 19 20 20 20 21 22 22 22 22 22 22 21 21 21 21 24 25 24 21 21 20 20 20 20 21 21 20 21 20 20 20 21 21 21 21 21 21 20 20 20 21 21 20 20 20 19 20
19 18 18 19 20 20 21 21 21 22 22 22 22 22 21 21 22 22 25 19 20 19 19 19 19 20 20 19 18 18 19 18 18 19 21 21 21 21 21 20 20 20 21 21 21 20 20 19 19
18 17 16 20 21 21 20 20 21 22 21 22 22 21 21 20 21 22 21 19 18 19 18 18 18 18 18 19 19 19 18 18 17 17 17 19 19 21 21 20 20 21 20 21 21 20 20 19 19
15 14 16 18 20 20 20 20 22 21 21 21 20 20 20 20 16 18 18 17 17 17 16 16 16 17 17 17 18 18 18 18 18 17 18 17 17 18 19 21 21 21 20 20 21 20 19 19 19
14 15 15 16 18 19 18 19 21 21 20 20 19 19 20 17 16 16 15 15 15 15 15 15 15 15 15 16 17 17 17 18 17 16 16 17 16 17 18 18 19 21 20 20 20 19 19 20 19
16 16 16 17 18 19 19 19 20 20 19 18 19 18 17 17 16 15 14 15 14 13 14 13 13 12 13 12 12 14 12 13 15 16 15 16 15 16 16 18 19 18 20 21 21 19 18 18 19
16 16 16 18 19 19 18 17 17 18 18 18 20 20 17 17 15 14 12 12 12 11 12 11 11 11 10 10 10 9 10 12 13 12 15 15 15 15 15 15 16 18 19 19 19 20 20 18 17
17 17 17 17 18 18 17 17 16 19 19 20 20 20 18 16 14 13 11 10 10 10 10 10 9 9 9 8 9 10 11 11 10 12 13 12 13 14 13 14 15 15 16 18 18 18 20 18 18
16 18 18 17 16 14 16 15 17 19 18 17 15 15 15 14 13 11 10 9 8 7 8 8 8 7 7 7 6 5 5 5 5 6 7 9 10 12 11 12 13 14 15 15 18 19 19 17 17
17 18 17 17 15 14 16 14 16 17 18 15 14 13 12 11 11 10 9 8 7 7 7 6 6 5 5 5 4 4 3 3 3 4 4 5 8 8 8 9 10 11 13 15 15 17 17 17 17
18 18 16 14 14 12 16 14 15 12 13 13 13 13 12 11 11 10 9 7 5 6 5 4 4 3 2 2 2 2 2 2 2 2 3 3 4 5 6 7 7 8 10 12 14 16 17 17 16
16 14 12 12 12 13 15 14 11 11 11 11 10 10 11 11 9 8 7 6 5 3 3 3 2 1 1 1 1 0 0 1 1 2 2 3 3 3 4 5 5 5 7 9 11 14 16 17 16
14 14 12 12 12 12 15 13 11 10 9 10 9 9 8 8 8 7 6 5 4 2 1 1 0 -0 -0 -1 -1 -1 -1 -1 -0 1 1 2 2 2 3 3 4 4 5 6 8 11 14 16 17
15 13 14 13 12 11 12 11 10 11 9 8 7 7 7 7 6 6 5 4 3 1 1 0 -0 -1 -1 -2 -2 -2 -2 -1 -1 -0 0 1 1 2 3 3 4 4 5 6 7 9 12 15 16
15 14 12 10 12 12 13 13 11 11 9 9 8 7 7 7 6 5 4 2 1 0 0 -1 -1 -1 -2 -2 -2 -2 -1 -1 -1 -1 -0 0 1 1 2 2 3 4 5 6 6 8 10 13 15
14 13 14 12 11 11 11 11 12 12 11 10 9 9 8 6 5 4 3 2 0 -0 -1 -1 -2 -2 -2 -2 -2 -2 -2 -1 -1 -1 -1 -1 -0 0 1 1 2 3 4 5 7 8 9 11 15
14 13 13 11 11 10 9 11 12 11 11 12 9 7 5 4 3 2 1 0 -0 -1 -2 -2 -2 -2 -2 -2 -2 -2 -2 -2 -2 -2 -2 -2 -1 -1 -0 0 1 3 4 6 7 8 9 11 14

GFSSGP_925_temp_126.txt.gz
Temp
22 22 22 21 20 17 20 23 21 23 24 25 25 26 26 25 26 25 26 26 26 26 26 26 26 26 25 25 25 25 25 25 25 25 24 24 24 23 23 22 22 21 20 20 20 20 20 20 20
22 22 21 16 18 20 20 21 24 23 25 24 25 25 26 25 25 25 25 26 27 26 26 26 25 25 25 25 25 25 24 24 24 24 24 24 23 23 23 22 21 21 20 19 19 19 20 20 20
22 22 18 15 14 19 21 23 22 23 23 26 27 25 26 26 25 25 26 27 27 26 26 25 24 24 24 24 24 24 24 24 24 24 24 24 23 23 23 22 22 21 20 19 19 19 20 20 21
22 18 15 18 20 20 21 22 23 22 25 25 27 27 26 25 25 26 26 26 26 26 25 25 25 24 24 24 24 24 24 23 23 24 24 23 23 23 23 22 22 21 21 20 20 20 21 21 21
20 15 17 18 19 19 21 22 22 23 24 24 24 26 25 25 25 26 26 26 26 25 25 24 24 24 24 24 24 24 23 23 23 23 23 23 23 23 22 22 22 22 21 21 21 20 20 20 20
17 15 17 18 19 20 21 22 22 22 22 24 23 25 24 25 26 26 26 26 26 26 25 24 23 24 24 24 23 23 23 23 23 23 23 23 23 23 22 22 22 21 21 21 21 20 20 20 20
17 16 18 18 19 21 23 22 22 22 22 24 23 24 23 25 27 26 25 25 24 24 24 24 24 23 24 23 23 23 23 23 23 23 22 22 22 22 22 22 21 21 21 21 20 20 20 20 20
14 15 18 18 19 21 22 22 22 21 22 23 25 24 24 25 25 26 25 24 23 23 23 23 23 23 23 23 23 22 23 23 22 22 22 22 22 21 22 21 21 21 20 20 20 20 20 20 20
16 15 16 19 18 21 21 19 20 22 22 22 23 25 25 26 26 25 23 23 23 23 23 23 23 23 22 22 22 22 22 22 22 22 21 21 21 21 21 21 21 20 20 20 20 20 20 20 20
16 14 17 18 20 21 20 19 20 21 20 21 22 23 25 26 26 26 24 22 23 23 23 23 23 23 22 22 22 22 21 21 21 21 20 20 20 20 20 20 20 20 20 20 20 20 20 19 19
16 16 17 19 19 19 19 18 20 22 20 22 21 21 21 24 23 22 23 25 25 24 24 24 23 22 22 22 22 21 21 20 20 20 19 19 19 20 19 19 20 20 19 19 19 19 19 19 19
18 17 17 18 19 17 18 19 20 19 21 22 21 20 19 19 18 20 22 25 23 24 24 23 23 22 22 21 21 21 20 20 19 19 20 18 19 19 18 18 19 19 19 19 18 18 18 19 19
17 17 17 17 17 17 17 17 18 19 19 18 18 18 18 18 18 20 22 21 23 23 24 23 24 23 20 19 19 18 19 19 19 19 19 20 19 18 18 17 19 18 19 19 18 18 18 18 18
17 17 16 17 17 17 18 18 19 20 19 20 19 18 18 17 18 18 19 20 20 20 20 20 20 18 18 19 18 18 18 18 18 18 18 19 18 18 18 17 18 19 20 20 20 19 18 18 18
17 16 15 17 18 19 18 19 19 20 18 19 18 18 18 16 13 14 16 16 15 15 15 16 17 17 18 18 17 17 17 17 17 17 17 17 17 18 17 18 18 19 20 20 20 19 19 19 18
16 15 15 18 18 19 18 16 19 18 19 19 18 17 17 12 11 10 11 11 12 12 12 12 13 14 15 15 16 16 16 16 16 16 16 16 17 17 18 16 17 18 19 19 18 18 17 17 17
13 14 15 15 18 17 17 17 17 17 17 17 16 15 14 11 10 10 9 9 10 9 10 10 11 12 13 13 14 15 15 15 15 15 16 16 18 16 15 15 18 16 16 18 17 17 17 17 17
14 14 13 13 16 16 15 15 16 17 16 16 15 14 11 10 9 8 7 7 7 8 8 8 9 10 11 12 12 12 13 13 14 14 14 14 15 15 16 16 14 14 14 15 16 18 16 16 16
14 14 13 13 14 14 15 14 15 15 15 15 15 14 10 9 8 7 6 5 6 6 8 7 7 7 8 9 9 10 9 9 10 11 11 12 13 14 14 14 14 13 13 14 15 15 16 18 16
14 13 13 13 15 15 14 15 15 15 14 11 11 11 9 8 7 7 6 5 5 4 4 3 4 5 6 5 5 5 6 8 7 8 8 9 10 11 12 12 12 12 12 13 14 14 14 15 15
14 13 13 13 15 15 13 14 15 12 11 10 8 8 7 7 6 6 5 4 4 3 3 3 3 3 3 5 5 6 7 7 7 6 6 6 7 8 8 9 9 10 11 11 12 13 14 16 15
13 14 14 14 14 12 15 13 13 11 10 9 8 7 6 6 7 6 5 4 3 2 2 2 2 2 2 2 3 1 0 0 2 2 3 4 5 5 6 6 7 8 8 9 10 10 12 13 14
14 15 14 14 13 13 13 11 12 11 9 9 8 8 8 7 7 6 6 5 3 2 2 1 1 1 0 0 1 -0 -1 -1 -1 -0 1 2 2 3 3 4 4 5 6 7 8 9 11 11 12
16 15 14 12 12 11 13 12 12 11 11 8 8 8 8 8 7 6 5 4 3 2 1 1 0 -0 -1 -1 -1 -2 -2 -1 -1 -0 0 1 1 1 2 2 2 2 3 4 5 6 7 8 10
14 13 11 10 10 12 13 12 14 10 11 9 8 8 8 7 6 5 4 3 2 0 -0 -1 -1 -1 -1 -2 -1 -1 -1 -1 -1 -1 -0 -0 0 1 1 1 2 2 3 3 4 4 5 6 6
12 12 11 12 12 11 12 12 11 11 9 9 9 9 7 6 5 4 3 2 1 0 -0 -1 -2 -2 -2 -2 -2 -1 -2 -2 -1 -1 -1 -0 -0 0 0 1 1 1 2 3 3 4 5 5 5
13 12 13 11 11 11 11 11 11 11 10 9 9 8 8 7 5 3 2 1 0 -1 -1 -2 -2 -2 -2 -2 -2 -2 -2 -2 -2 -2 -2 -2 -1 -1 -1 -1 -0 1 1 1 2 3 4 5 5
13 12 11 9 11 11 11 11 11 10 10 10 9 8 9 7 4 2 1 0 -0 -1 -2 -2 -2 -2 -2 -2 -3 -2 -2 -2 -2 -2 -2 -2 -2 -2 -2 -1 -1 -0 0 1 1 2 3 4 5
13 12 11 11 10 10 10 11 10 11 10 9 9 9 8 5 1 0 -0 -1 -1 -2 -2 -2 -2 -3 -3 -3 -3 -3 -3 -3 -3 -3 -3 -3 -3 -3 -2 -2 -2 -1 -0 0 1 2 3 4 5
13 13 13 11 11 9 9 12 11 10 10 10 10 4 3 0 -1 -1 -1 -1 -2 -2 -2 -2 -3 -3 -3 -3 -4 -4 -4 -4 -4 -4 -4 -4 -4 -4 -4 -3 -2 -2 -1 -1 -0 0 1 2 4

GFSSGP_925_temp_129.txt.gz
Temp
22 22 22 22 26 25 25 26 24 27 26 27 26 27 28 27 28 29 26 25 26 25 26 25 25 25 25 25 25 24 24 25 25 25 25 24 24 24 23 23 22 21 20 20 20 20 20 20 21
22 21 21 22 26 27 27 24 26 26 27 26 25 27 28 27 27 27 27 25 25 25 25 25 25 25 25 25 25 24 24 24 25 25 25 24 24 23 23 22 22 21 20 20 19 20 20 21 21
22 22 24 23 22 27 26 25 25 25 25 25 28 27 27 27 27 26 25 25 26 25 25 25 25 25 25 24 24 24 24 24 24 24 24 24 23 23 22 22 22 21 20 20 20 20 21 21 20
21 22 21 25 25 23 24 25 25 26 27 27 26 28 26 24 25 24 25 26 26 25 24 25 25 25 25 24 24 24 24 24 23 23 23 23 23 23 22 22 22 21 20 20 20 21 21 21 21
20 22 24 23 23 23 23 24 24 25 25 26 26 26 26 25 25 24 24 24 25 25 24 24 24 24 24 24 24 24 23 23 23 23 23 22 22 22 22 22 22 21 21 20 20 21 21 21 21
23 21 24 24 23 23 24 24 24 24 25 26 27 26 26 25 25 24 24 24 24 24 24 24 24 24 24 23 23 23 23 23 23 23 22 22 22 22 22 22 22 21 21 21 20 21 21 21 21
22 23 23 21 22 23 24 24 23 24 25 25 25 26 26 27 26 26 25 24 24 24 23 24 24 23 23 23 23 23 23 22 22 23 22 22 22 22 21 21 21 21 21 20 20 20 20 21 21
20 22 21 21 22 24 22 23 23 24 24 25 25 26 26 27 26 26 26 25 24 24 24 23 23 23 22 22 22 22 22 22 22 22 22 22 21 21 21 21 20 20 20 20 20 20 20 20 20
19 22 22 22 21 23 21 22 22 23 23 23 25 25 26 25 26 25 24 24 24 24 24 23 23 23 23 22 22 22 21 21 21 21 21 20 19 19 19 19 20 20 20 20 19 19 20 20 20
21 21 22 20 21 21 21 22 22 23 24 23 24 25 24 24 24 24 25 25 23 23 25 24 23 23 22 22 21 21 21 21 21 20 20 19 18 18 18 19 20 19 19 20 19 19 19 19 18
18 21 19 20 20 20 20 21 22 22 23 24 23 23 23 23 23 22 22 23 23 23 25 24 23 23 22 22 21 21 20 20 20 20 20 18 18 19 19 18 18 18 18 18 19 19 18 18 18
19 19 19 20 19 19 20 21 21 21 22 22 22 21 21 22 21 21 21 21 21 22 23 22 21 21 21 20 20 20 20 19 18 19 18 19 18 18 18 18 18 18 18 18 18 18 18 18 18
19 19 19 19 18 19 19 20 20 21 22 21 21 21 20 19 17 18 18 19 19 18 17 18 18 18 19 19 19 18 19 18 18 18 18 18 18 18 18 18 18 17 18 18 18 18 19 19 19
18 18 18 18 20 19 19 20 19 21 21 21 22 21 17 15 13 13 13 13 13 12 12 13 15 16 17 17 18 18 18 17 17 18 18 17 18 18 17 18 18 17 18 19 19 19 18 18 18
18 18 18 19 19 20 19 20 20 21 20 21 21 20 15 13 11 11 10 10 10 10 9 10 11 13 15 16 17 17 16 16 16 16 16 17 17 17 17 17 17 18 17 19 19 19 18 17 17
18 17 19 19 19 18 20 20 20 21 20 20 20 17 13 12 10 9 8 9 8 9 8 9 11 12 12 13 14 14 15 15 15 15 14 14 15 16 17 17 18 19 19 18 17 17 17 17 17
16 18 16 18 18 18 18 18 20 20 19 20 20 15 12 10 9 8 7 7 7 7 7 7 9 10 11 11 11 12 13 13 13 13 12 12 13 14 14 15 15 16 15 17 18 16 16 17 16
17 16 16 16 18 18 17 18 18 19 19 17 16 13 11 9 8 7 7 6 6 6 6 5 5 6 9 11 11 10 10 9 10 11 10 11 11 12 12 12 13 14 15 15 15 16 15 16 17
16 16 16 16 17 16 17 17 18 19 15 14 14 12 10 9 8 7 6 6 6 5 5 5 4 4 5 5 7 8 8 8 8 8 9 9 9 10 12 12 12 12 13 14 14 15 15 15 15
16 15 16 16 16 17 17 17 18 14 11 11 12 10 10 9 9 8 7 6 5 5 4 4 4 3 3 4 3 4 5 6 7 7 7 7 7 7 7 8 8 8 9 10 12 13 14 14 15
15 15 15 16 16 16 16 17 15 12 11 10 9 9 9 9 9 9 7 6 5 4 3 3 3 2 2 1 3 3 4 5 6 4 4 3 4 4 4 5 6 7 7 8 9 10 12 13 15
14 16 16 15 15 15 16 16 15 13 10 10 9 9 9 9 9 9 7 6 4 3 3 2 2 1 1 1 1 1 2 2 2 2 2 3 2 3 3 4 4 4 5 6 7 8 9 11 13
16 16 16 15 15 14 15 15 15 12 12 10 9 9 9 9 9 9 7 5 3 2 1 1 1 1 0 0 0 1 1 1 1 1 1 2 2 2 2 3 3 3 4 4 5 6 7 8 10
16 16 15 13 14 14 16 16 15 14 14 11 10 10 10 9 9 7 5 4 3 2 1 1 0 0 -1 -0 -0 0 0 0 0 1 1 1 1 1 1 1 1 2 2 3 3 4 5 6 7
15 15 14 14 13 15 14 14 17 14 13 13 11 10 10 9 8 7 6 4 3 2 1 0 0 0 -1 -1 -1 -0 -0 -0 -0 -0 -1 -1 0 1 1 1 1 1 2 2 3 3 4 5 5
14 15 15 14 14 15 13 15 16 13 12 11 11 11 9 8 7 6 4 3 2 1 0 -0 -0 -0 -1 -1 -1 -1 -1 -1 -1 -1 -1 -1 -1 -1 -0 -0 -0 0 1 1 2 2 3 4 5
14 14 15 14 12 13 16 15 13 12 10 10 10 10 9 8 6 5 3 2 1 0 -0 -1 -1 -1 -1 -2 -2 -2 -2 -2 -2 -2 -2 -2 -2 -1 -1 -1 -1 -1 -0 0 1 1 2 3 4
15 15 14 13 13 13 15 15 16 12 12 11 10 10 10 7 5 4 2 1 0 -0 -1 -1 -2 -2 -2 -3 -3 -3 -3 -2 -2 -2 -2 -3 -3 -3 -2 -2 -2 -1 -1 -0 0 1 1 2 3
13 14 13 14 12 13 14 16 14 15 14 12 11 11 10 7 3 3 2 0 -0 -0 -1 -2 -2 -3 -3 -3 -3 -3 -3 -3 -3 -3 -4 -4 -3 -3 -3 -3 -3 -2 -2 -1 -1 -1 0 2 3
13 14 14 14 13 12 13 15 12 13 13 13 12 10 8 4 2 2 1 1 -0 -1 -1 -2 -3 -3 -3 -4 -4 -4 -4 -4 -4 -4 -4 -4 -4 -4 -4 -3 -3 -3 -2 -2 -1 -1 -0 0 1

GFSSGP_925_temp_132.txt.gz
Temp
21 22 23 27 31 32 31 31 30 31 32 32 31 31 32 32 32 31 30 27 27 26 24 24 25 25 25 25 25 25 25 24 24 24 24 24 24 24 24 23 22 21 20 20 21 21 21 21 22
22 23 26 30 31 32 31 30 30 30 31 30 30 31 32 31 31 31 31 26 26 26 25 23 24 24 25 25 25 25 25 25 24 24 24 24 24 23 23 23 22 21 20 20 20 21 21 21 21
22 23 29 31 31 32 31 30 30 30 31 31 32 32 31 30 30 30 27 26 25 25 25 23 24 24 24 24 24 24 25 25 24 24 24 24 23 23 23 23 22 22 21 20 20 20 21 21 21
26 28 29 30 31 29 30 29 30 31 31 31 31 31 31 28 28 27 27 26 26 25 24 22 24 24 24 24 24 24 24 24 24 24 24 23 23 23 22 22 22 22 21 20 20 20 21 21 21
26 29 30 30 29 29 29 29 29 29 29 30 32 30 30 29 27 27 26 26 25 25 24 23 24 24 23 23 23 24 24 24 24 24 23 23 23 22 22 22 21 21 21 20 20 19 21 21 21
29 29 30 30 29 29 29 29 29 29 30 30 30 30 29 29 28 27 27 26 25 25 23 23 24 23 23 23 23 23 23 23 23 23 23 22 22 22 21 21 21 21 21 20 20 20 20 20 21
28 29 30 29 29 29 28 28 27 28 29 28 29 29 30 30 28 27 26 26 25 24 23 23 22 22 23 23 22 22 22 22 22 22 22 22 21 21 21 21 21 21 20 20 20 20 20 20 20
28 29 28 28 28 28 26 27 27 28 28 28 29 29 29 29 27 27 27 26 26 24 23 23 22 22 22 21 22 22 22 22 22 22 22 21 21 21 21 21 20 20 21 21 20 20 20 20 20
26 28 29 28 28 27 26 27 28 27 27 28 28 28 27 27 27 27 28 28 27 26 24 23 22 22 21 21 21 22 21 21 21 21 21 21 20 21 20 20 20 20 20 20 20 20 20 20 20
27 28 28 26 26 26 26 26 26 27 27 27 27 28 26 26 26 26 27 27 27 27 26 24 23 22 22 22 21 21 21 21 20 20 21 20 21 21 22 21 20 19 20 20 20 20 20 20 21
25 27 25 24 24 25 26 26 26 26 26 26 25 26 26 25 25 25 25 25 25 25 25 24 23 22 21 23 22 22 21 20 20 20 21 21 21 21 21 21 20 19 19 19 19 19 19 20 21
24 24 24 24 23 24 25 25 25 25 25 25 25 25 24 23 23 22 22 22 22 22 19 18 18 20 20 21 22 22 19 19 19 19 19 19 19 19 20 21 21 20 20 20 20 19 20 21 21
24 24 23 23 23 24 24 24 24 25 25 25 26 23 21 22 21 20 19 18 17 16 15 14 14 15 18 18 18 18 19 18 18 18 18 18 18 19 19 19 19 19 19 19 19 19 20 20 20
22 22 23 24 24 24 23 25 24 25 24 25 25 22 20 19 18 18 17 16 16 14 13 12 13 12 14 16 17 17 18 17 17 17 17 17 18 18 18 18 18 19 19 19 19 18 18 19 19
22 22 24 24 24 24 23 23 23 24 24 24 25 21 18 17 16 15 14 14 14 14 12 12 12 12 12 13 13 15 15 16 16 16 16 16 17 17 17 18 18 19 19 18 17 18 18 18 18
22 22 24 23 23 22 23 25 25 24 24 24 24 20 18 16 14 13 12 12 12 11 11 10 10 10 11 12 12 13 12 13 13 13 13 14 14 15 15 16 17 17 17 17 18 17 18 18 18
22 24 23 23 23 23 23 23 24 24 24 23 23 19 17 15 14 12 12 11 11 10 10 10 9 9 10 11 13 13 13 13 13 12 12 10 11 11 13 14 14 15 16 16 17 17 17 18 19
24 22 22 22 24 22 22 22 24 23 23 22 21 18 16 15 13 12 11 11 11 11 10 10 9 9 10 11 13 14 13 13 12 11 10 10 10 10 11 13 13 13 13 15 16 18 18 17 16
21 21 21 23 22 20 21 22 23 23 23 21 20 18 15 14 13 12 11 11 11 10 10 9 9 8 9 10 11 12 11 12 12 11 9 9 9 9 10 11 12 12 13 13 13 14 15 17 18
20 20 21 22 21 20 21 22 23 20 19 17 18 17 16 15 14 13 12 11 10 9 8 8 8 7 7 8 8 8 9 10 10 9 9 8 7 8 9 9 10 10 11 12 13 13 12 14 15
20 20 21 20 21 21 21 22 21 18 17 16 15 15 15 15 15 14 12 10 8 7 7 6 6 6 6 6 8 8 10 10 10 9 8 7 7 7 7 7 8 9 9 11 11 12 13 12 13
19 21 19 19 19 20 20 20 22 20 18 16 15 15 15 14 14 14 12 10 9 7 6 6 6 5 5 5 6 6 7 8 7 7 7 6 6 6 6 6 6 6 7 8 9 11 11 10 11
19 19 18 18 19 19 20 19 23 20 19 18 16 15 15 15 15 13 11 10 9 7 7 6 5 5 4 4 4 5 5 5 6 6 5 6 5 6 5 4 3 4 4 5 5 6 8 10 12
19 18 19 19 19 18 21 20 23 20 20 20 17 16 15 14 14 12 10 9 8 7 6 6 6 5 4 4 3 3 3 3 4 4 4 4 4 5 4 3 3 2 2 3 4 4 5 5 6
18 18 18 19 19 19 19 19 21 21 20 19 17 16 15 14 13 12 11 9 8 7 6 5 5 4 3 3 2 3 2 2 2 2 2 2 2 3 3 2 2 2 2 2 2 3 3 4 5
18 19 18 17 19 20 18 18 21 19 19 18 18 17 15 14 11 11 9 8 7 6 5 4 4 3 2 1 1 1 0 0 1 0 0 0 0 0 0 1 1 1 1 1 1 2 2 3 4
18 17 20 18 18 17 19 21 17 16 16 15 15 15 15 13 9 10 9 7 6 6 4 3 2 2 1 0 -0 -0 -0 -1 -1 -1 -1 -1 -1 -1 -1 -1 -0 -0 -0 0 0 1 1 2 2
18 19 17 17 15 17 20 20 20 17 17 15 15 15 15 12 9 9 8 6 6 5 4 2 1 1 0 -0 -1 -1 -1 -1 -1 -1 -2 -2 -2 -2 -2 -2 -1 -1 -1 -0 -0 0 0 1 1
18 17 17 17 17 16 17 19 20 20 19 18 17 16 16 13 10 8 7 6 5 4 3 2 1 0 -0 -0 -0 -1 -1 -1 -2 -2 -2 -3 -3 -3 -2 -2 -1 -1 -1 -1 -1 -1 -0 0 1
17 17 18 15 16 14 16 18 19 19 19 18 18 16 16 12 9 7 6 6 5 4 3 2 1 -0 -1 -1 -1 -1 -2 -2 -2 -3 -3 -3 -3 -3 -3 -3 -2 -2 -2 -2 -2 -1 -1 -0 0

GFSSGP_925_temp_135.txt.gz
Temp
24 26 28 30 32 34 36 34 35 35 35 35 34 34 34 34 33 30 31 30 29 29 26 24 25 25 25 26 26 25 25 25 24 24 23 23 23 23 23 22 22 21 21 21 21 21 22 21 21
25 28 29 33 32 35 35 34 33 34 34 34 33 34 34 31 34 33 31 29 29 29 27 24 24 24 24 25 25 25 25 24 24 24 23 23 23 23 22 22 22 21 21 21 21 21 21 21 21
24 28 31 33 34 35 34 33 33 33 34 34 34 35 34 31 32 31 29 29 29 29 27 25 24 24 24 24 24 24 24 24 24 24 23 23 23 23 22 22 22 21 21 20 21 20 21 21 21
29 31 33 32 34 33 34 33 33 34 34 34 34 33 32 31 31 30 29 29 29 28 27 24 24 24 24 24 24 24 24 24 24 24 23 23 23 23 22 22 21 21 21 20 20 20 20 20 21
29 32 32 33 33 33 33 33 33 32 32 33 34 32 31 31 31 30 30 29 28 28 26 22 24 23 23 23 24 24 24 23 23 23 23 23 23 23 22 22 21 21 21 20 20 20 20 20 20
31 33 32 34 34 33 32 32 32 32 33 32 32 32 31 31 30 29 29 28 28 28 26 24 23 23 23 23 23 23 23 23 23 23 22 22 22 22 22 22 21 21 21 20 20 20 20 20 20
30 32 32 33 33 32 32 31 31 31 32 31 32 32 32 31 29 29 29 28 27 27 26 26 24 23 23 23 23 23 23 23 23 23 22 22 22 22 22 22 21 21 21 21 20 20 20 20 20
30 31 31 33 33 32 30 30 30 31 30 31 32 31 31 30 29 29 30 29 28 27 26 25 25 24 22 21 23 22 22 22 22 22 22 22 22 21 21 21 21 21 21 21 21 20 20 20 20
31 30 32 33 31 31 30 30 31 30 31 30 31 30 29 29 29 29 29 30 29 28 27 26 25 25 24 23 23 22 22 22 22 21 21 21 20 21 20 20 20 21 21 21 20 20 21 20 20
30 31 32 31 30 30 29 30 30 30 31 30 30 30 29 28 28 28 28 29 28 28 27 26 25 25 24 25 24 23 23 22 21 21 21 20 21 22 23 22 21 20 20 20 20 20 20 20 20
30 30 29 29 28 29 29 30 30 29 29 30 27 28 28 27 26 26 26 25 25 25 22 21 20 22 24 25 26 25 25 25 23 21 21 22 21 22 23 23 21 20 20 20 20 19 19 19 20
27 29 28 29 27 27 28 29 28 29 28 28 28 27 26 26 26 25 24 23 21 20 18 17 17 18 18 21 22 23 22 20 20 20 19 20 20 20 21 21 21 20 20 20 21 21 20 20 21
27 29 28 28 27 27 28 27 28 28 28 28 28 25 24 25 25 23 22 21 20 18 16 15 15 15 17 17 18 18 19 19 18 18 18 18 19 19 19 19 20 20 20 20 20 20 20 21 21
27 27 27 28 27 28 27 27 28 28 28 27 27 25 23 22 22 22 20 19 19 17 16 14 15 14 15 15 15 16 17 17 17 17 17 17 17 18 18 18 18 19 19 19 20 20 20 20 20
25 25 28 28 28 28 26 26 27 29 27 27 27 25 22 21 20 19 18 18 17 16 15 13 14 13 14 15 15 15 14 14 14 14 14 15 15 16 16 17 17 17 18 18 19 19 19 19 19
25 26 27 30 27 26 26 28 28 28 27 27 27 25 22 20 19 17 16 16 16 15 14 13 13 13 13 14 15 15 15 14 14 13 13 13 13 13 14 14 15 15 16 17 18 18 15 17 18
26 27 28 27 27 27 26 27 29 28 27 26 27 26 22 20 18 17 16 16 15 14 14 13 12 12 13 14 15 15 15 15 15 14 13 12 13 12 13 15 16 15 16 16 17 17 17 17 18
27 27 28 26 28 25 26 26 27 28 27 26 26 25 21 19 18 16 16 15 15 14 13 13 12 11 13 13 14 15 15 15 15 14 12 11 11 11 12 14 14 14 16 17 15 15 15 17 18
25 25 26 27 28 26 25 25 27 27 27 26 26 24 21 18 17 15 15 14 14 13 12 11 11 10 11 13 13 14 14 14 14 13 12 11 10 10 11 12 12 13 14 14 15 16 14 14 16
24 24 25 26 27 24 24 25 26 27 26 25 24 23 20 18 17 16 15 14 12 11 11 11 10 10 9 10 11 12 13 13 13 12 12 11 10 9 10 10 11 11 12 13 14 14 15 15 15
23 23 24 24 25 25 24 24 25 26 23 21 21 22 21 20 18 17 15 13 12 11 11 11 10 10 9 9 10 10 12 12 12 11 11 9 9 9 8 8 9 8 9 11 11 12 13 14 15
23 24 23 22 22 22 24 23 25 25 22 21 21 20 20 19 18 17 15 14 13 11 10 10 9 9 8 8 9 9 10 10 10 10 10 8 9 8 8 8 7 7 7 8 9 10 10 11 13
22 22 21 22 21 22 23 23 25 26 23 22 21 20 19 18 18 17 15 14 12 11 10 9 10 9 8 7 7 7 7 8 8 8 7 8 7 7 7 7 5 5 5 5 5 6 7 8 9
22 21 21 21 21 20 23 23 24 26 24 24 22 20 19 18 18 16 14 13 12 11 10 9 9 8 7 6 6 6 5 5 6 6 6 6 6 6 5 4 3 3 3 3 3 4 4 5 6
21 20 20 21 22 21 24 22 24 25 24 23 23 21 20 18 17 16 15 14 12 10 9 9 8 7 6 5 5 4 4 4 4 4 3 3 3 3 2 2 1 2 2 2 2 2 3 3 4
22 21 20 18 20 22 23 21 24 24 24 23 22 21 20 18 16 15 14 13 11 10 8 8 7 6 5 4 4 4 3 3 3 2 1 2 1 1 1 0 0 1 1 1 1 1 1 2 3
21 20 22 19 20 19 21 23 25 23 22 21 20 20 19 18 14 14 13 12 11 9 7 6 6 5 4 4 4 3 2 2 1 1 0 0 -0 -0 -0 -0 -0 -0 0 1 1 1 1 1 1
21 22 19 18 15 17 20 22 23 20 20 20 19 19 19 18 13 14 12 11 10 9 7 5 5 4 4 4 3 3 2 1 0 0 -1 -1 -1 -1 -1 -1 -1 -0 -0 -0 -0 -0 0 1 1
21 20 20 20 19 18 18 20 23 20 21 20 20 19 19 17 13 13 12 10 9 8 7 6 4 4 3 3 3 2 1 0 -0 -1 -1 -2 -1 -1 -1 -1 -1 -1 -1 -1 -1 -1 -0 -1 -0
20 19 20 17 16 18 15 16 22 19 21 21 21 21 20 18 15 13 11 10 9 8 7 6 5 3 2 2 2 1 0 -0 -1 -1 -2 -2 -2 -2 -2 -2 -2 -2 -2 -2 -2 -2 -2 -1 -2

GFSSGP_925_temp_138.txt.gz
Temp
25 27 26 30 29 32 33 35 36 36 35 35 35 34 33 32 31 27 30 30 30 27 25 25 25 25 25 25 25 25 25 25 25 24 24 23 23 22 22 22 22 22 21 21 22 21 21 21 21
25 26 30 31 30 32 34 35 34 34 34 34 34 35 33 30 32 29 30 30 30 28 25 24 24 25 24 25 25 24 24 24 24 24 24 23 23 22 22 22 22 21 21 21 21 21 21 21 21
25 27 30 31 32 33 33 34 34 34 35 35 35 34 32 31 31 31 30 30 30 28 26 25 25 24 24 24 25 24 24 24 24 24 23 23 23 22 22 22 21 21 20 20 21 21 21 21 21
29 31 31 31 32 34 34 33 34 34 34 35 35 31 31 31 31 30 30 30 29 27 26 25 24 24 24 24 24 24 24 24 24 23 23 23 23 22 22 22 21 21 20 20 20 21 21 21 20
30 31 30 32 33 34 34 34 34 33 33 34 34 31 30 31 31 30 29 29 28 27 25 25 24 24 24 24 24 24 24 24 24 23 23 23 23 22 22 22 21 21 20 20 20 20 20 20 20
30 32 31 32 34 34 34 33 33 33 33 33 33 32 30 31 30 30 29 28 27 27 26 25 24 24 24 23 23 23 23 23 23 23 23 23 23 22 22 22 21 21 20 20 20 20 20 20 20
29 30 31 32 34 33 33 33 32 32 33 31 32 32 31 30 29 30 29 28 27 27 26 25 24 23 23 23 23 23 23 23 23 23 23 22 22 22 22 22 22 21 21 21 20 20 20 20 20
31 30 30 32 33 31 31 32 32 32 30 32 32 31 29 29 30 30 30 29 28 28 27 26 25 24 23 23 23 22 22 22 22 22 22 22 22 22 21 21 21 21 21 22 21 21 20 20 20
31 29 30 32 33 30 31 31 32 31 31 31 31 30 29 29 29 29 29 30 29 27 23 23 23 24 24 23 23 22 22 22 21 21 21 21 21 21 21 21 21 21 21 21 21 21 20 20 20
30 30 31 31 31 31 31 31 31 30 31 31 30 30 29 28 28 27 28 27 25 22 21 20 21 22 23 25 24 24 24 23 23 22 21 21 21 21 21 21 22 21 21 21 21 21 20 20 19
30 29 31 31 28 29 30 30 31 30 29 29 28 28 28 27 26 26 25 24 22 20 18 18 18 19 19 20 21 22 23 22 21 21 21 21 20 20 21 22 22 21 21 21 20 20 20 19 20
29 30 31 30 29 28 29 30 30 30 30 29 29 27 27 26 26 24 23 22 20 19 17 16 16 16 17 17 18 18 19 19 19 20 20 20 19 19 20 20 21 21 20 20 20 20 20 20 19
29 29 31 29 29 28 28 28 29 29 30 29 28 26 25 25 25 23 22 21 19 18 15 15 15 15 16 16 16 16 18 17 17 17 18 18 19 19 18 18 20 21 20 20 20 20 20 20 20
29 29 28 29 29 29 28 28 29 29 30 28 28 25 23 23 23 22 20 19 18 17 15 14 14 14 15 16 16 16 16 16 16 16 15 15 15 16 17 17 17 18 18 18 19 20 20 19 17
28 26 27 28 28 28 29 26 27 30 29 27 28 26 23 22 21 19 19 18 17 16 15 14 14 14 14 15 15 15 15 15 15 14 14 14 14 13 14 15 16 16 16 16 17 18 18 17 16
25 26 26 29 30 28 27 26 30 29 28 27 28 25 23 21 20 18 18 17 16 15 14 13 12 13 14 14 15 15 15 15 14 14 13 12 12 12 13 14 15 15 16 16 16 16 16 17 15
27 26 28 29 29 28 27 27 29 29 28 27 27 27 23 21 20 18 18 17 16 15 14 13 12 12 13 14 15 15 15 15 14 13 12 11 11 11 12 13 13 14 15 16 16 15 15 16 16
27 28 28 28 28 28 27 27 28 29 29 28 28 27 23 21 19 17 17 16 15 14 13 12 11 11 13 13 14 14 14 14 14 13 12 11 10 10 10 11 12 12 13 13 14 14 15 15 15
27 26 26 27 29 28 28 27 27 28 28 28 27 27 23 20 18 17 16 15 14 13 12 12 11 10 11 12 12 12 13 14 14 13 12 11 10 9 9 9 9 10 10 11 12 13 14 15 15
25 24 25 26 28 27 27 26 26 27 27 28 28 26 22 19 18 17 16 14 13 12 12 12 11 10 10 10 11 11 12 12 12 11 11 10 10 9 9 8 8 7 8 9 9 10 12 13 14
24 24 24 25 26 26 25 25 25 27 28 26 24 24 22 19 18 17 16 14 13 12 11 11 10 9 9 9 9 10 11 11 10 10 10 8 9 8 8 8 7 6 6 7 7 8 8 9 10
22 25 25 24 23 22 25 23 25 26 25 23 22 23 21 21 19 18 16 15 13 11 11 11 10 9 8 8 8 8 8 8 8 8 7 8 7 7 7 5 4 4 4 4 5 6 6 6 7
23 24 22 22 22 22 22 22 24 26 26 23 22 21 21 20 19 17 16 14 13 12 10 10 10 9 8 7 7 7 6 7 6 6 6 5 5 5 4 2 2 2 2 3 2 3 3 4 5
24 22 22 22 21 19 21 22 23 25 25 24 23 21 20 19 19 17 15 14 12 11 10 10 9 8 7 6 6 5 5 5 5 4 3 3 3 2 2 1 1 1 1 1 2 2 2 3 3
22 21 19 20 20 20 24 24 25 25 25 25 22 21 20 19 18 16 15 14 13 11 10 9 8 7 6 6 5 5 4 4 3 3 2 2 1 1 0 -0 0 0 0 1 1 1 1 2 2
21 21 19 18 19 21 23 21 23 25 25 24 23 22 21 19 18 16 16 14 12 10 9 9 8 6 6 5 5 4 3 3 2 1 1 0 -0 -0 -0 -1 -0 -0 -0 -0 -0 0 0 1 1
22 21 23 20 20 19 20 22 24 25 25 23 22 22 20 19 16 16 15 13 11 9 8 7 7 6 5 5 4 3 2 2 1 0 -0 -1 -1 -0 -1 -1 -1 -1 -1 -1 -1 -1 -0 -0 0
21 22 19 19 15 17 20 21 22 20 20 21 21 20 20 19 15 15 14 12 11 9 7 6 6 5 4 4 3 3 2 1 0 -0 -1 -1 -1 -1 -1 -2 -2 -2 -2 -2 -2 -2 -1 -1 -1
21 20 20 20 19 17 17 19 18 17 19 18 16 14 15 17 15 14 13 11 10 9 7 6 5 4 4 4 3 2 1 1 -0 -1 -1 -2 -2 -2 -2 -2 -2 -2 -3 -3 -3 -2 -2 -2 -2
20 19 19 16 16 14 14 14 19 18 18 16 17 17 17 14 14 14 13 11 10 9 8 7 5 4 3 3 3 2 1 0 -1 -1 -2 -2 -2 -2 -2 -3 -3 -3 -4 -4 -4 -3 -3 -3 -3

GFSSGP_925_temp_141.txt.gz
Temp
26 27 25 24 22 22 24 29 30 28 29 30 32 29 28 28 27 24 28 28 27 26 25 25 25 25 25 26 25 25 25 25 25 25 25 25 24 23 23 22 22 22 22 22 22 21 21 21 21
26 27 27 23 23 23 24 29 28 29 31 32 31 29 28 26 28 27 28 27 27 27 26 25 25 25 25 25 25 25 25 25 25 24 24 24 24 23 22 22 22 21 21 21 21 21 21 21 21
25 25 22 22 22 24 26 29 29 31 32 32 29 29 29 28 28 28 29 27 26 25 25 25 25 25 25 25 25 25 25 24 24 24 24 24 23 23 22 22 21 21 21 21 21 21 21 21 21
25 23 22 23 24 27 28 29 30 31 31 30 28 27 29 29 29 29 28 27 26 25 25 24 24 24 24 24 24 24 24 24 23 23 23 23 23 23 22 22 22 21 20 20 20 20 20 20 20
26 22 22 24 25 31 29 30 31 30 31 29 29 27 27 29 29 29 28 26 26 26 25 24 24 24 24 24 24 24 24 24 24 23 23 23 23 23 22 22 22 21 21 20 20 20 20 20 20
23 22 22 22 27 30 29 30 31 31 30 29 28 27 26 29 29 28 28 27 26 25 25 24 24 24 23 23 23 23 23 23 23 23 23 22 22 22 22 22 22 22 21 21 20 20 20 20 20
24 22 22 24 27 29 29 30 29 28 27 28 30 26 26 27 29 28 28 27 26 24 24 24 24 24 24 23 23 23 23 22 22 22 22 22 22 22 22 22 22 22 21 21 21 20 20 19 20
24 22 23 24 26 27 30 30 29 27 28 31 29 25 25 27 29 28 27 23 23 22 21 20 20 20 22 23 23 23 23 22 22 22 22 22 22 22 21 21 21 21 21 21 21 21 20 20 19
29 22 22 25 26 28 30 29 30 29 28 29 27 25 26 27 28 26 22 22 21 21 21 21 20 20 20 20 21 23 22 23 23 22 22 21 21 21 22 21 21 21 21 21 21 21 21 20 19
24 20 23 28 27 26 28 28 29 28 28 28 26 25 26 26 25 23 21 19 18 18 18 19 20 20 20 19 19 19 20 21 20 20 20 21 21 20 20 21 21 21 21 21 21 21 21 21 20
25 23 25 27 26 25 25 26 29 27 26 25 24 24 24 23 22 21 20 19 17 16 16 16 17 18 18 18 18 18 19 20 19 18 18 19 19 19 19 20 20 21 21 21 21 20 20 20 20
26 27 27 27 26 26 25 24 26 28 26 24 23 23 22 21 20 19 19 18 17 16 15 15 15 16 16 16 16 17 17 17 17 17 17 18 19 19 18 17 19 20 20 20 20 20 20 20 21
27 27 26 27 28 26 26 25 25 27 24 24 24 22 21 19 19 19 19 17 16 15 14 14 14 15 15 15 15 15 15 16 16 16 16 16 17 18 18 18 17 17 17 17 17 17 18 20 19
24 24 24 25 25 26 25 25 25 26 25 24 23 20 20 19 17 18 18 17 15 14 14 13 14 14 15 15 15 15 15 15 15 15 14 15 15 15 15 15 15 15 15 17 17 16 17 17 17
24 23 23 24 24 24 26 24 24 25 24 24 22 20 19 18 17 17 16 16 15 14 13 13 13 14 14 15 15 15 15 14 14 13 13 13 13 14 13 13 14 14 15 16 15 16 16 16 17
23 23 21 23 25 24 24 22 24 24 24 23 20 20 18 17 16 17 16 15 14 13 12 12 13 13 14 14 15 15 14 14 13 13 12 12 12 12 12 12 12 13 14 14 14 15 15 16 16
21 20 21 23 25 23 23 23 25 24 24 23 20 19 17 16 15 16 15 14 13 13 12 12 12 12 13 13 14 14 14 13 13 12 11 11 11 10 11 10 10 11 12 12 12 14 14 14 15
21 21 22 23 25 24 22 22 24 24 23 23 22 18 17 15 14 15 14 13 13 12 12 11 11 11 12 12 13 13 13 12 12 11 10 10 9 9 9 9 8 9 10 10 11 11 13 13 14
22 22 22 23 24 25 23 22 22 22 24 22 20 18 15 15 15 14 13 13 12 12 11 11 10 10 11 11 11 12 12 11 11 10 9 9 9 8 8 7 7 7 7 7 8 8 9 12 12
23 22 20 22 24 24 22 21 22 24 23 23 22 17 15 15 14 13 13 13 12 11 11 10 9 9 9 9 10 10 10 9 9 8 8 7 7 6 6 5 4 5 5 5 6 5 5 7 9
22 21 21 21 22 22 21 21 22 23 24 23 19 17 16 15 14 13 12 12 11 11 10 10 9 8 8 8 8 9 9 8 7 6 6 6 5 4 4 3 3 3 3 3 3 3 4 4 5
20 23 22 22 20 18 21 18 21 22 23 20 19 16 16 15 15 13 12 11 11 10 10 9 8 8 7 7 7 6 6 6 4 4 4 4 3 2 2 1 1 1 1 2 2 2 3 3 4
21 22 21 21 18 18 20 18 21 22 22 19 17 17 16 15 14 13 11 11 11 10 10 9 8 7 6 6 6 5 5 4 4 3 2 2 1 1 0 0 0 0 1 1 1 1 2 2 3
23 21 20 20 18 15 18 18 19 20 21 20 18 17 16 15 14 12 12 11 11 10 10 8 7 6 6 5 5 4 3 3 2 1 1 0 -0 -0 -0 -0 -0 -0 -0 -0 0 0 1 1 2
21 18 15 15 15 14 19 19 19 22 22 20 19 18 16 15 13 12 11 10 10 10 9 8 7 6 5 5 4 3 3 2 1 0 -0 -1 -1 -1 -1 -1 -1 -1 -1 -1 -1 -0 -0 0 1
18 17 13 16 15 16 19 17 19 20 21 21 20 18 16 14 13 12 11 9 10 9 8 7 6 5 5 4 3 2 2 1 0 -0 -1 -1 -1 -1 -1 -2 -2 -2 -2 -2 -1 -1 -1 -1 -1
19 17 19 17 16 14 16 18 20 18 18 19 19 18 15 13 13 12 10 9 8 8 7 6 6 5 4 4 3 2 1 0 -0 -1 -1 -1 -1 -1 -2 -2 -2 -3 -3 -3 -3 -2 -2 -2 -2
19 20 15 13 15 14 16 17 16 16 17 17 14 13 13 13 13 11 10 8 7 7 7 6 5 4 4 3 2 1 1 -0 -1 -1 -1 -2 -2 -2 -2 -3 -3 -3 -4 -4 -3 -3 -3 -3 -3
19 18 17 16 14 13 14 14 15 16 15 14 14 14 12 12 10 9 9 8 7 6 6 5 4 4 3 3 2 1 0 -0 -1 -2 -2 -2 -2 -3 -3 -4 -4 -4 -5 -4 -4 -4 -5 -5 -5
19 18 17 12 13 12 12 13 18 17 15 15 16 15 15 13 11 9 10 8 6 6 6 5 4 3 3 2 2 1 0 -1 -1 -2 -2 -2 -3 -3 -3 -4 -5 -6 -6 -5 -5 -5 -6 -6 -6